Location: Melbourne
(37.8170°S, 144.9670°E)
Time: 10:10:02
(UTC+10:00)

ISS - All Passes

Search period start: 30 August 2014 00:00
Search period end: 09 September 2014 00:00
Orbit: 414 x 419 km, 51.6° (Epoch: 29 August)

Date Brightness Start Highest point End Pass type
(mag) Time Alt. Az. Time Alt. Az. Time Alt. Az.
30 Aug - 00:45:25 10° SW 00:46:56 12° SSW 00:48:27 10° S night (unlit)
30 Aug - 04:00:37 10° SSW 04:02:55 17° SSE 04:05:13 10° ESE visible
30 Aug - 05:36:38 10° SW 05:40:03 83° NW 05:43:26 10° NE visible
30 Aug - 22:17:38 10° NW 22:21:02 90° WSW 22:24:28 10° SE night (unlit)
30 Aug - 23:55:58 10° WSW 23:58:11 16° SSW 00:00:25 10° SSE night (unlit)
31 Aug - 03:12:33 10° S 03:14:11 13° SSE 03:15:49 10° SE visible
31 Aug - 04:48:11 10° SW 04:51:34 54° SE 04:54:53 10° ENE visible
31 Aug - 06:26:04 10° W 06:27:57 14° NW 06:29:50 10° NNW daylight
31 Aug - 21:29:18 10° NNW 21:32:34 47° NE 21:35:53 10° ESE night (unlit)
31 Aug - 23:06:45 10° W 23:09:29 22° SSW 23:12:14 10° SSE night (unlit)
01 Sep - 02:24:50 10° S 02:25:23 10° SSE 02:25:56 10° SSE night (unlit)
01 Sep - 03:59:50 10° SW 04:02:58 32° SSE 04:06:05 10° E visible
01 Sep - 05:36:45 10° WSW 05:39:37 25° NW 05:42:28 10° N visible
01 Sep - 20:41:18 10° N 20:44:09 25° NE 20:47:02 10° ESE night (unlit)
01 Sep - 22:17:42 10° W 22:20:48 33° SSW 22:23:57 10° SE night (unlit)
01 Sep - 23:57:50 10° SSW 23:58:24 10° SSW 23:58:58 10° S night (unlit)
02 Sep - 03:11:32 10° SSW 03:14:18 22° SSE 03:17:01 10° E night (unlit)
02 Sep - 04:47:54 10° WSW 04:51:12 47° NW 04:54:27 10° NNE visible
02 Sep - 19:53:54 10° NNE 19:55:47 14° NE 19:57:41 10° E night (unlit)
02 Sep - 21:28:50 10° WNW 21:32:10 54° SW 21:35:33 10° SE night (unlit)
02 Sep - 23:07:54 10° SW 23:09:32 13° SSW 23:11:10 10° S night (unlit)
03 Sep - 02:23:18 10° SSW 02:25:31 16° SSE 02:27:44 10° ESE night (unlit)
03 Sep - 03:59:15 10° SW 04:02:41 90° SE 04:06:04 10° NE visible
03 Sep - 20:40:12 10° NW 20:43:35 82° NE 20:47:00 10° SE visible
03 Sep - 22:18:24 10° WSW 22:20:42 17° SSW 22:23:01 10° SSE night (unlit)
04 Sep - 01:35:10 10° S 01:36:40 12° SSE 01:38:10 10° SE night (unlit)
04 Sep - 03:10:44 10° SW 03:14:04 50° SE 03:17:23 10° ENE night (unlit)
04 Sep - 04:48:23 10° W 04:50:30 16° NW 04:52:36 10° NNW visible
04 Sep - 19:51:49 10° NNW 19:55:02 43° NE 19:58:17 10° ESE visible
04 Sep - 21:29:05 10° W 21:31:53 23° SSW 21:34:43 10° SSE night (unlit)
05 Sep - 02:22:17 10° SSW 02:25:22 30° SSE 02:28:25 10° E night (unlit)
05 Sep - 03:59:05 10° WSW 04:02:03 28° NW 04:04:59 10° NNE night (unlit)
05 Sep - 19:03:47 10° N 19:06:31 23° NE 19:09:17 10° ESE visible
05 Sep - 20:39:58 10° W 20:43:07 35° SSW 20:46:18 10° SE visible
05 Sep - 22:19:52 10° SSW 22:20:40 11° SSW 22:21:28 10° S night (unlit)
06 Sep - 01:33:54 10° SSW 01:36:34 21° SSE 01:39:13 10° ESE night (unlit)
06 Sep - 03:10:10 10° WSW 03:13:31 53° NW 03:16:48 10° NE night (unlit)
06 Sep - 18:16:27 10° NNE 18:18:03 13° NE 18:19:39 10° E daylight
06 Sep - 19:51:02 10° WNW 19:54:23 60° SW 19:57:47 10° SE visible
06 Sep - 21:29:57 10° SW 21:31:42 13° SSW 21:33:28 10° SSE visible
07 Sep - 00:45:35 10° SSW 00:47:41 15° SSE 00:49:47 10° ESE night (unlit)
07 Sep - 02:21:27 10° SW 02:24:53 81° SE 02:28:16 10° NE night (unlit)
07 Sep - 19:02:20 10° NW 19:05:42 74° NE 19:09:07 10° SE visible
07 Sep - 20:40:23 10° WSW 20:42:46 18° SSW 20:45:11 10° SSE visible
07 Sep - 23:57:22 10° S 23:58:43 12° SSE 00:00:03 10° SE night (unlit)
08 Sep - 01:32:50 10° SW 01:36:09 45° SE 01:39:25 10° ENE night (unlit)
08 Sep - 03:10:18 10° W 03:12:37 17° NW 03:14:55 10° N night (unlit)
08 Sep - 18:13:54 10° NNW 18:17:04 38° NE 18:20:15 10° ESE daylight
08 Sep - 19:51:00 10° W 19:53:52 25° SSW 19:56:45 10° SSE visible
